Change the Weather History Date:

Saturday, November 15, 2014

  Actual Average Record
Temperature  
Mean Temperature 30 °F 42 °F  
Max Temperature 37 °F 50 °F 72 °F (1964)
Min Temperature 23 °F 34 °F 10 °F (1933)
Degree Days  
Heating Degree Days 35 23  
Month to date heating degree days 345 310  
Since 1 July heating degree days 803 865  
Cooling Degree Days 0 0  
Month to date cooling degree days 0 0  
Year to date cooling degree days 719 652  
Moisture  
Dew Point 17 °F    
Average Humidity 60    
Maximum Humidity 81    
Minimum Humidity 38    
Precipitation  
Precipitation T in 0.12 in 0.95 in (2008)
Month to date precipitation 1.09 1.62  
Year to date precipitation 41.90 35.10  
Snow  
Snow T in 0.10 in - ()
Month to date snowfall T 1.0  
Since 1 July snowfall T 1.4  
Since 1 September snowfall T 1.4  
Snow Depth 0.00 in    
Sea Level Pressure  
Sea Level Pressure 30.35 in    
Wind  
Wind Speed 7 mph (WSW)    
Max Wind Speed 16 mph    
Max Gust Speed 21 mph    
Visibility 10 miles    
Events Snow    
T = Trace of Precipitation, MM = Missing Value Source: NWS Daily Summary

Daily Weather History Graph

Daily Weather History Graph

Search for Another Location

Airport or City:

Trip Planner

Search our weather history database for the weather conditions in past years. The results will help you decide how hot, cold, wet, or windy it might be!

Date:

Astronomy

Nov. 15, 2014 Rise Set
Actual Time 7:13 AM EST 5:07 PM EST
Civil Twilight 6:43 AM EST 5:36 PM EST
Nautical Twilight 6:10 AM EST 6:09 PM EST
Astronomical Twilight 5:37 AM EST 6:42 PM EST
Moon 12:20 AM EST (11/15) 1:32 PM EST (11/15)
Length of Visible Light 10h 53m
Length of Day
9h 54m
Last Quarter, 40% of the Moon is Illuminated
Nov 15
Last Quarter
Nov 22
New
Nov 29
First Quarter
Dec 6
Full
Dec 14
Last Quarter

Hourly Weather History & Observations

Time (EST) Temp. Windchill Dew Point Humidity Pressure Visibility Wind Dir Wind Speed Gust Speed Precip Events Conditions
12:51 AM 28.9 °F 20.4 °F 19.9 °F 69% 30.35 in 10.0 mi West 9.2 mph - N/A   Overcast
1:51 AM 28.9 °F 20.4 °F 19.9 °F 69% 30.35 in 10.0 mi West 9.2 mph - 0.00 in Snow Light Snow
2:51 AM 28.0 °F 18.1 °F 19.0 °F 69% 30.36 in 10.0 mi West 11.5 mph - 0.00 in   Overcast
3:51 AM 28.0 °F 20.8 °F 19.9 °F 72% 30.36 in 10.0 mi West 6.9 mph - N/A   Mostly Cloudy
4:51 AM 27.0 °F 19.5 °F 19.9 °F 75% 30.38 in 10.0 mi West 6.9 mph - N/A   Overcast
5:51 AM 27.0 °F 20.5 °F 19.0 °F 72% 30.39 in 10.0 mi West 5.8 mph - N/A   Overcast
6:51 AM 24.1 °F 19.7 °F 18.0 °F 77% 30.40 in 10.0 mi WSW 3.5 mph - N/A   Partly Cloudy
7:51 AM 24.1 °F - 19.0 °F 81% 30.42 in 6.0 mi Calm Calm - N/A   Haze
8:51 AM 28.0 °F 21.7 °F 19.9 °F 72% 30.42 in 6.0 mi WSW 5.8 mph - N/A   Haze
9:51 AM 30.9 °F 23.5 °F 18.0 °F 59% 30.42 in 10.0 mi West 8.1 mph - N/A   Clear
10:51 AM 33.1 °F 24.4 °F 14.0 °F 46% 30.42 in 10.0 mi WSW 11.5 mph - N/A   Partly Cloudy
11:51 AM 34.0 °F 26.0 °F 14.0 °F 44% 30.40 in 10.0 mi West 10.4 mph - N/A   Scattered Clouds
12:51 PM 35.1 °F 26.9 °F 14.0 °F 42% 30.38 in 10.0 mi WSW 11.5 mph 20.7 mph N/A   Mostly Cloudy
1:51 PM 36.0 °F 29.0 °F 15.1 °F 43% 30.35 in 10.0 mi SW 9.2 mph - N/A   Mostly Cloudy
2:51 PM 36.0 °F 29.6 °F 12.9 °F 39% 30.33 in 10.0 mi WSW 8.1 mph - N/A   Mostly Cloudy
3:51 PM 35.1 °F 27.9 °F 14.0 °F 42% 30.32 in 10.0 mi SSW 9.2 mph - N/A   Scattered Clouds
4:51 PM 33.1 °F 27.7 °F 14.0 °F 46% 30.32 in 10.0 mi SW 5.8 mph - N/A   Scattered Clouds
5:51 PM 30.0 °F 26.5 °F 17.1 °F 59% 30.33 in 10.0 mi SW 3.5 mph - N/A   Mostly Cloudy
6:51 PM 30.0 °F 25.2 °F 16.0 °F 56% 30.34 in 10.0 mi SW 4.6 mph - N/A   Mostly Cloudy
7:51 PM 30.0 °F 26.5 °F 16.0 °F 56% 30.31 in 10.0 mi SSW 3.5 mph - N/A   Overcast
8:51 PM 28.9 °F 25.2 °F 15.1 °F 56% 30.30 in 10.0 mi SSW 3.5 mph - N/A   Overcast
9:51 PM 28.0 °F 24.2 °F 15.1 °F 58% 30.28 in 10.0 mi South 3.5 mph - N/A   Overcast
10:51 PM 27.0 °F 21.6 °F 16.0 °F 63% 30.27 in 9.0 mi South 4.6 mph - N/A   Overcast
11:51 PM 28.9 °F 25.2 °F 19.0 °F 67% 30.26 in 10.0 mi South 3.5 mph - N/A   Overcast